Haleyville, AL

4:25 AM CDT on August 18, 2017 (GMT -0500)
Haleyville

Weather History for K1M4 - August, 2013

Change the Weather History Date:

Thursday, August 22, 2013

  Actual Average (KJFX) Record (KJFX)
Temperature  
Mean Temperature 77 °F -  
Max Temperature 86 °F 88 °F 101 °F (1980)
Min Temperature 68 °F 65 °F 56 °F (1961)
Cooling Degree Days 12    
Growing Degree Days 27 (Base 50)    
Moisture  
Dew Point 71 °F    
Average Humidity 95    
Maximum Humidity 100    
Minimum Humidity 63    
Precipitation  
Precipitation 0.69 in - - ()
Sea Level Pressure  
Sea Level Pressure 30.16 in    
Wind  
Wind Speed 1 mph (SSE)    
Max Wind Speed 20 mph    
Max Gust Speed 23 mph    
Visibility 4 miles    
Events Fog , Rain , Thunderstorm    
Averages and records for this station are not official NWS values.
T = Trace of Precipitation, MM = Missing Value Source: NWS Daily Summary

Daily Weather History Graph

Daily Weather History Graph

Search for Another Location

Airport or City:

Trip Planner

Search our weather history database for the weather conditions in past years. The results will help you decide how hot, cold, wet, or windy it might be!

Date:

Astronomy

Aug. 22, 2013 Rise Set
Actual Time 6:16 AM CDT 7:29 PM CDT
Civil Twilight 5:50 AM CDT 7:55 PM CDT
Nautical Twilight 5:19 AM CDT 8:26 PM CDT
Astronomical Twilight 4:47 AM CDT 8:58 PM CDT
Moon 8:21 PM CDT (8/22) 7:57 AM CDT (8/22)
Length of Visible Light 14h 04m
Length of Day
13h 12m
Waning Gibbous, 96% of the Moon is Illuminated
Aug 22
Waning Gibbous
Aug 28
Last Quarter
Sep 5
New
Sep 12
First Quarter
Sep 19
Full

Hourly Weather History & Observations

Time (CDT) Temp. Heat Index Dew Point Humidity Pressure Visibility Wind Dir Wind Speed Gust Speed Precip Events Conditions
12:28 AM 71.6 °F - 71.6 °F 100% 30.18 in 2.0 mi Calm Calm - N/A   Clear
12:39 AM 69.8 °F - 69.8 °F 100% 30.18 in 4.0 mi Calm Calm - N/A   Clear
12:56 AM 70.0 °F - 70.0 °F 100% 30.21 in 4.0 mi Calm Calm - N/A   Clear
1:00 AM 69.8 °F - 69.8 °F 100% 30.18 in 1.8 mi Calm Calm - N/A   Clear
1:03 AM 69.8 °F - 69.8 °F 100% 30.18 in 1.0 mi Calm Calm - N/A   Clear
1:11 AM 69.8 °F - 69.8 °F 100% 30.18 in 1.5 mi Calm Calm - N/A   Clear
1:16 AM 69.8 °F - 69.8 °F 100% 30.17 in 3.0 mi Calm Calm - N/A   Clear
1:56 AM 70.0 °F - 70.0 °F 100% 30.21 in 4.0 mi Calm Calm - N/A   Clear
1:59 AM 69.8 °F - 69.8 °F 100% 30.17 in 1.8 mi Calm Calm - N/A   Clear
2:01 AM 69.8 °F - 69.8 °F 100% 30.17 in 1.0 mi Calm Calm - N/A   Clear
2:05 AM 69.8 °F - 69.8 °F 100% 30.17 in 0.5 mi Calm Calm - N/A Fog Fog
2:12 AM 69.8 °F - 69.8 °F 100% 30.17 in 1.0 mi Calm Calm - N/A   Clear
2:15 AM 69.8 °F - 69.8 °F 100% 30.17 in 1.5 mi Calm Calm - N/A   Clear
2:25 AM 69.8 °F - 69.8 °F 100% 30.17 in 2.5 mi Calm Calm - N/A   Clear
2:32 AM 69.8 °F - 69.8 °F 100% 30.17 in 4.0 mi Calm Calm - N/A   Clear
2:45 AM 69.8 °F - 69.8 °F 100% 30.17 in 1.5 mi Calm Calm - N/A   Clear
2:47 AM 69.8 °F - 69.8 °F 100% 30.17 in 1.0 mi Calm Calm - N/A   Clear
2:56 AM 68.9 °F - 68.9 °F 100% 30.21 in 1.2 mi Calm Calm - N/A   Clear
3:06 AM 69.8 °F - 69.8 °F 100% 30.17 in 1.8 mi Calm Calm - N/A   Clear
3:09 AM 69.8 °F - 69.8 °F 100% 30.17 in 3.0 mi Calm Calm - N/A   Clear
3:37 AM 69.8 °F - 69.8 °F 100% 30.16 in 4.0 mi Calm Calm - N/A   Partly Cloudy
3:56 AM 68.9 °F - 68.9 °F 100% 30.19 in 6.0 mi Calm Calm - N/A   Clear
4:00 AM 69.8 °F - 69.8 °F 100% 30.16 in 1.5 mi Calm Calm - N/A   Clear
4:03 AM 69.8 °F - 69.8 °F 100% 30.16 in 1.0 mi Calm Calm - N/A   Clear
4:19 AM 69.8 °F - 69.8 °F 100% 30.16 in 0.5 mi Calm Calm - N/A Fog Fog
4:28 AM 69.8 °F - 69.8 °F 100% 30.17 in 1.0 mi Calm Calm - N/A   Clear
4:30 AM 69.8 °F - 69.8 °F 100% 30.17 in 2.0 mi Calm Calm - N/A   Clear
4:37 AM 68.0 °F - 68.0 °F 100% 30.17 in 1.2 mi Calm Calm - N/A   Clear
4:45 AM 69.8 °F - 69.8 °F 100% 30.17 in 2.0 mi Calm Calm - N/A   Clear
4:56 AM 68.9 °F - 68.9 °F 100% 30.20 in 6.0 mi Calm Calm - N/A   Clear
5:56 AM 68.0 °F - 68.0 °F 100% 30.22 in 6.0 mi Calm Calm - N/A   Partly Cloudy
6:56 AM 70.9 °F - 70.9 °F 100% 30.23 in 9.0 mi Calm Calm - N/A   Partly Cloudy
7:56 AM 72.9 °F - 72.9 °F 100% 30.24 in 10.0 mi Calm Calm - N/A   Scattered Clouds
8:56 AM 77.0 °F - 72.9 °F 87% 30.23 in 10.0 mi Calm Calm - N/A   Clear
10:56 AM 82.9 °F 88.0 °F 72.0 °F 69% 30.22 in 10.0 mi Calm Calm - N/A   Unknown
11:16 AM 82.4 °F 88.2 °F 73.4 °F 74% 30.18 in 10.0 mi Calm Calm - N/A   Mostly Cloudy
11:28 AM 82.4 °F 87.2 °F 71.6 °F 70% 30.18 in 10.0 mi Calm Calm - N/A   Scattered Clouds
11:56 AM 86.0 °F 92.2 °F 72.0 °F 63% 30.21 in 10.0 mi Calm Calm - N/A   Clear
12:56 PM 84.9 °F 92.1 °F 73.9 °F 69% 30.19 in 10.0 mi NNE 4.6 mph - N/A   Mostly Cloudy
1:56 PM 83.8 °F 90.8 °F 73.9 °F 72% 30.17 in 10.0 mi NE 4.6 mph - N/A   Partly Cloudy
2:56 PM 82.9 °F 89.4 °F 73.9 °F 74% 30.15 in 10.0 mi Calm Calm - N/A   Mostly Cloudy
3:06 PM 82.4 °F 88.2 °F 73.4 °F 74% 30.11 in 10.0 mi SSE 9.2 mph - N/A Thunderstorm Thunderstorm
3:19 PM 78.8 °F - 73.4 °F 83% 30.12 in 2.0 mi SSW 13.8 mph - 0.03 in Rain , Thunderstorm Heavy Thunderstorms and Rain
3:21 PM 77.0 °F - 73.4 °F 89% 30.12 in 1.0 mi South 17.3 mph 21.9 mph 0.05 in Rain , Thunderstorm Heavy Thunderstorms and Rain
3:24 PM 75.2 °F - 73.4 °F 94% 30.12 in 0.5 mi SSE 15.0 mph 21.9 mph 0.10 in Fog , Rain , Thunderstorm Heavy Thunderstorms and Rain
3:33 PM 73.4 °F - 71.6 °F 94% 30.13 in 0.5 mi SSE 19.6 mph 23.0 mph 0.22 in Fog , Rain , Thunderstorm Light Thunderstorms and Rain
3:42 PM 73.4 °F - 71.6 °F 94% 30.13 in 0.2 mi South 13.8 mph 23.0 mph 0.59 in Fog , Rain , Thunderstorm Heavy Thunderstorms and Rain
3:56 PM 73.9 °F - 70.9 °F 90% 30.14 in 2.0 mi Calm Calm - 0.67 in Rain , Thunderstorm Thunderstorms and Rain
4:05 PM 73.4 °F - 71.6 °F 94% 30.12 in 3.0 mi Calm Calm - 0.01 in Rain , Thunderstorm Heavy Thunderstorms and Rain
4:13 PM 73.4 °F - 71.6 °F 94% 30.11 in 10.0 mi Calm Calm - 0.01 in Rain Light Rain
4:21 PM 73.4 °F - 71.6 °F 94% 30.11 in 10.0 mi Calm Calm - 0.02 in Rain Light Rain
4:56 PM 73.9 °F - 72.9 °F 96% 30.14 in 10.0 mi Calm Calm - 0.02 in Rain Light Rain
5:56 PM 73.9 °F - 73.9 °F 100% 30.13 in 10.0 mi Calm Calm - 0.00 in   Clear
6:56 PM 77.0 °F - 73.9 °F 90% 30.12 in 10.0 mi Calm Calm - N/A   Clear
7:56 PM 73.9 °F - 73.9 °F 100% 30.14 in 10.0 mi Calm Calm - N/A   Clear
8:56 PM 72.9 °F - 72.9 °F 100% 30.14 in 7.0 mi Calm Calm - N/A   Clear
9:40 PM 71.6 °F - 71.6 °F 100% 30.13 in 1.5 mi Calm Calm - N/A   Clear
9:47 PM 73.4 °F - 73.4 °F 100% 30.13 in 1.2 mi Calm Calm - N/A   Clear
9:56 PM 72.9 °F - 72.9 °F 100% 30.16 in 8.0 mi Calm Calm - N/A   Clear
10:44 PM 71.6 °F - 71.6 °F 100% 30.12 in 1.8 mi Calm Calm - N/A   Clear
10:48 PM 71.6 °F - 71.6 °F 100% 30.13 in 1.0 mi Calm Calm - N/A   Clear
10:56 PM 70.9 °F - 70.9 °F 100% 30.16 in 0.8 mi Calm Calm - N/A   Clear
10:59 PM 71.6 °F - 71.6 °F 100% 30.13 in 1.2 mi Calm Calm - N/A   Clear
11:10 PM 71.6 °F - 71.6 °F 100% 30.12 in 0.8 mi Calm Calm - N/A   Clear
11:21 PM 71.6 °F - 71.6 °F 100% 30.12 in 1.2 mi Calm Calm - N/A   Clear
11:24 PM 71.6 °F - 71.6 °F 100% 30.12 in 2.0 mi Calm Calm - N/A   Clear
11:33 PM 69.8 °F - 69.8 °F 100% 30.11 in 1.2 mi Calm Calm - N/A   Clear
11:35 PM 69.8 °F - 69.8 °F 100% 30.11 in 0.8 mi Calm Calm - N/A   Clear
11:56 PM 70.9 °F - 70.9 °F 100% 30.14 in 4.0 mi Calm Calm - N/A   Clear